Location: Wagman Observatory
(40.6260°N, 79.8130°W)
Time: 09:28:52
(UTC-04:00)

Daily predictions for brighter satellites

Satellite Brightness Start Highest point End
(mag) Time Altitude Azimuth Time Altitude Azimuth Time Altitude Azimuth
Cosmos 1862 3.8 20:36:20 10° N 20:40:11 41° ENE 20:44:01 10° SSE
Cosmos 2263 Rocket 2.3 20:36:55 10° NNW 20:42:28 63° ENE 20:47:59 10° SE
Envisat 3.7 20:41:32 10° SE 20:46:10 37° ENE 20:50:48 10° N
Meteor 1-29 4.0 20:47:28 10° NE 20:50:24 25° E 20:53:17 10° SSE
OAO 3 Rocket 4.1 20:48:08 10° WSW 20:52:34 36° SSW 20:57:01 10° SE
Helios 1A 3.4 20:49:57 10° SE 20:54:01 47° ENE 20:58:07 10° N
SEDSat Delta rocket 4.5 20:50:59 10° WSW 20:55:11 29° S 20:59:42 11° ESE
Cosmos 1867 3.9 20:50:03 10° NNW 20:55:23 52° NE 21:00:33 11° SE
Cosmos 2322 Rocket 2.8 20:50:01 10° SW 20:55:34 62° WNW 21:01:10 10° NNE
Cosmos 1733 Rocket 3.1 20:51:19 10° N 20:55:46 67° E 21:00:11 10° SSE
Cosmos 2026 Rocket 4.0 20:51:06 10° N 20:57:20 88° E 21:03:26 10° S
Cosmos 1825 2.5 20:57:04 10° NNW 21:00:51 69° W 21:04:37 10° S
Cosmos 2360 Rocket 2.2 20:57:02 10° S 21:02:33 59° ESE 21:08:08 10° NNE
ALOS 4.2 20:58:34 10° SSW 21:02:42 31° W 21:06:52 10° NNW
Cosmos 1408 3.1 20:59:18 10° NNW 21:02:57 61° W 21:06:31 10° S
H-2A R/B 4.3 21:02:06 10° SSW 21:05:43 37° W 21:09:20 10° NNW
ERS-1 Rocket 4.1 21:02:00 12° ESE 21:05:49 27° ENE 21:09:59 10° N
Cosmos 1939 Rocket 3.4 21:02:10 10° SE 21:05:56 40° ENE 21:09:41 10° N
Cosmos 1862 Rocket 3.5 21:01:55 10° S 21:06:21 80° E 21:10:52 10° N
COSMOS 2428 3.5 21:03:40 10° SSE 21:08:27 29° ESE 21:13:16 10° NE
Atlas Centaur 2 3.4 21:04:55 10° WSW 21:10:33 35° S 21:16:08 14° ESE
ATLAS 5 CENTAUR R/B 2.5 21:05:43 10° NNW 21:11:46 83° NE 21:17:48 12° SE
NOSS 3-1 (C) 4.4 21:09:27 10° SSE 21:13:47 23° ESE 21:18:25 10° ENE
USA 229 DEB 3.6 21:13:30 10° SSW 21:20:14 67° ESE 21:27:07 10° NE
USA 229 3.7 21:13:37 10° SSW 21:20:21 67° ESE 21:27:13 10° NE
Cosmos 2322 3.6 21:17:01 10° SSW 21:22:42 74° ESE 21:28:25 10° NNE
SL-16 R/B 3.9 21:22:00 10° SW 21:27:11 36° WNW 21:32:25 10° N
Cosmos 1703 Rocket 3.8 21:23:00 10° SSE 21:27:17 49° E 21:31:33 10° NNE
USA 186 3.4 21:26:58 10° SSW 21:29:30 29° W 21:32:12 10° NNW
NOSS 3-1 (A) 4.4 21:28:56 18° SE 21:31:01 22° ESE 21:35:36 10° ENE
Lacrosse 4 Rocket 4.0 21:28:01 10° WNW 21:31:03 18° WSW 21:34:07 10° SSW
Helios 1B rocket 2.7 21:28:24 10° N 21:32:30 70° WNW 21:36:34 10° SSW
Meteor 1-14 Rocket 4.4 21:27:06 10° N 21:32:44 58° ENE 21:37:04 18° SSE
YAOGAN 6 2.8 21:34:54 26° SE 21:36:40 53° ENE 21:40:11 10° N
Cosmos 2237 Rocket 3.7 21:42:54 17° E 21:42:54 17° E 21:45:56 10° ENE
Cosmos 1777 Rocket 4.2 21:37:44 10° N 21:42:55 53° ENE 21:45:38 26° SE
Cosmos 1844 Rocket 3.2 21:38:11 10° N 21:43:30 43° ENE 21:46:15 25° ESE
USA 267 4.2 21:37:41 10° NE 21:43:55 49° NNW 21:50:10 10° WSW
Cosmos 2333 4.3 21:39:30 10° S 21:45:01 53° ESE 21:50:37 10° NNE
Cosmos 2266 Rocket 4.0 21:40:20 10° N 21:46:40 75° E 21:51:42 17° SSE
Cosmos 2278 Rocket 3.7 21:42:54 10° N 21:47:12 22° NE 21:49:35 17° E
Cosmos 2333 Rocket 3.1 21:46:22 26° SE 21:47:40 28° ESE 21:52:29 10° NE
Terra 3.9 21:49:20 11° ENE 21:50:13 12° ENE 21:51:58 10° NE
Meteor 2-10 Rocket 4.1 21:44:43 10° SSW 21:50:31 68° W 21:56:16 10° N
Cosmos 2221 Rocket 3.4 21:53:09 19° S 21:56:18 78° E 22:00:45 10° N
YAOGAN 11 4.4 21:57:16 37° ESE 21:58:32 49° ENE 22:02:43 10° N
Abrixas rocket 4.1 22:01:15 10° NW 22:04:01 24° NNE 22:05:13 20° NE
Cosmos 2219 Rocket 2.3 22:01:52 24° S 22:04:58 49° ESE 22:10:22 10° NE
Cosmos 968 Rocket 4.4 22:01:04 10° NNW 22:06:00 45° WSW 22:09:47 17° S
H-2A R/B 3.8 22:10:39 19° ENE 22:10:42 19° ENE 22:13:43 10° NNE
Cosmos 1633 3.9 22:11:18 10° NNE 22:13:48 27° NE 22:13:48 27° NE
USA 234 3.2 22:14:54 34° SE 22:18:02 88° SW 22:24:37 10° NW
Cosmos 1553 Rocket 4.4 22:21:38 39° ESE 22:22:53 43° E 22:28:41 10° NNE
Cosmos 1782 2.7 22:24:25 67° SSW 22:24:56 88° W 22:28:58 10° N
SL-08 RB Rocket 3.5 22:33:13 69° ESE 22:33:38 75° ENE 22:38:12 10° N
Okean 1-7 4.2 22:33:16 17° SW 22:36:15 41° WNW 22:40:27 10° N
Cosmos 1346 Rocket 3.8 22:39:06 36° NE 22:39:06 36° NE 22:41:41 10° NNE
H-2A R/B 1.9 22:37:56 59° E 22:38:21 62° ENE 22:43:13 10° N
MetOp-B 4.5 22:38:15 38° SSW 22:40:10 60° WSW 22:45:29 10° NNW
Meteor 1-27 Rocket 3.7 22:39:55 56° ESE 22:40:28 59° E 22:45:57 10° NNE
CZ-4C R/B 3.1 22:34:45 10° NNW 22:41:48 59° NE 22:44:27 40° ESE
SeaSat 1 2.4 22:41:46 62° E 22:42:15 66° ENE 22:47:10 10° NNW
ERS-1 Rocket 4.2 22:42:00 23° SW 22:44:25 35° W 22:49:01 10° NNW
USA 245 4.2 22:43:26 49° SSW 22:44:49 70° WSW 22:49:33 10° NNW
Cosmos 2084 3.7 22:42:46 10° NNW 22:46:00 57° N 22:46:00 57° N
SPOT 5 3.1 22:48:33 51° SW 22:49:18 58° WSW 22:53:50 10° NNW
Cosmos 1570 Rocket 4.1 22:47:23 36° SSW 22:49:32 73° WNW 22:54:50 10° NNE
Okean 2 Rocket 4.3 22:46:26 10° NNW 22:50:36 37° W 22:51:48 31° SW
COSMOS 2428 4.0 22:47:12 10° SW 22:52:31 40° WNW 22:57:53 10° N
Cosmos 1937 Rocket 4.4 22:49:36 10° N 22:54:16 35° ENE 22:54:16 35° ENE
S3M 3.8 22:53:35 61° SSE 22:54:38 74° E 23:00:51 10° N
Meteor 2-11 Rocket 4.4 22:55:26 60° ESE 22:55:50 61° E 23:01:49 10° NNE
DMSP B5D2-2 4.2 22:51:02 10° NNE 22:55:51 60° ENE 22:55:51 60° ENE
Cosmos 1980 3.5 22:58:04 66° SSW 22:58:53 86° ESE 23:04:34 10° NNE
Atlas Centaur 2 3.7 22:53:15 10° WSW 22:58:46 32° SSW 22:58:46 32° SSW
ARGOS 3.7 23:00:07 42° SW 23:01:21 50° W 23:06:35 10° NNW
Cosmos 2208 Rocket 4.4 22:59:30 37° SW 23:01:31 64° WNW 23:06:48 10° NNE
Cosmos 1844 4.0 22:56:48 10° NNW 23:02:19 56° WSW 23:03:07 51° SW
Cosmos 1606 4.1 23:02:44 34° WNW 23:02:44 34° WNW 23:06:11 10° N
NOSS 3-1 (C) 3.9 22:58:17 10° SW 23:03:58 58° NW 23:10:23 10° NNE
SL-16 R/B 3.5 23:07:51 27° ENE 23:07:51 27° ENE 23:10:50 10° NE
ASTEX 1 3.4 23:08:04 78° N 23:08:04 78° N 23:12:44 10° N
MOS 1-B Rocket 4.5 23:06:16 40° SW 23:07:49 49° W 23:13:15 10° NNW
Iridium 4 Rocket 4.0 23:04:24 10° N 23:07:09 39° NNE 23:07:09 39° NNE
Meteor 1-11 Rocket 3.5 23:02:59 10° N 23:08:34 85° W 23:08:49 81° SSW
Landsat 7 4.0 23:12:37 70° NW 23:12:37 70° NW 23:16:57 10° NNW
Cosmos 2150 Rocket 4.4 23:11:02 10° NNW 23:16:02 56° NE 23:16:02 56° NE
CARTOSAT-1 4.4 23:19:48 47° N 23:19:48 47° N 23:22:56 10° NNW
Cosmos 1898 Rocket 3.6 23:15:50 10° NNW 23:20:27 70° N 23:20:27 70° N
NOSS 3-1 (A) 3.8 23:16:00 13° SW 23:21:14 59° NW 23:27:39 10° NNE
Timation 1 Rocket 4.2 23:15:46 10° NNW 23:21:47 84° ENE 23:21:47 84° ENE
ATLAS 2AS CENTAUR R/B 3.7 23:23:55 37° E 23:23:55 37° E 23:29:40 10° NE
Cosmos 2237 Rocket 2.5 23:24:38 52° WSW 23:25:44 63° WNW 23:31:25 10° NNE
SPOT 1/Viking Rocket 4.5 23:26:06 38° WSW 23:26:27 39° W 23:31:19 10° NNW
Cosmos 1844 Rocket 4.2 23:22:37 10° NW 23:27:05 25° WSW 23:27:56 24° WSW
Terra 2.3 23:28:13 57° NNW 23:28:13 57° NNW 23:32:04 10° NNW
Cosmos 1745 Rocket 4.0 23:21:26 10° NNW 23:27:46 73° W 23:28:24 67° SW
Cosmos 1536 4.5 23:27:23 10° NNW 23:29:40 32° NNW 23:29:40 32° NNW
Cosmos 2333 Rocket 3.3 23:28:14 21° WSW 23:31:42 42° WNW 23:37:10 10° N
Cosmos 2278 Rocket 2.5 23:26:08 10° NNW 23:31:26 59° W 23:31:26 59° W
Okean 1 Rocket 4.3 23:32:55 10° NNW 23:35:58 41° NNW 23:35:58 41° NNW
Cosmos 2285 Rocket 4.1 23:40:54 68° NE 23:40:54 68° NE 23:46:34 10° NNE
H-2A R/B 3.7 23:47:46 30° WNW 23:47:46 30° WNW 23:50:29 10° NNW
ATLAS 3B R/B 3.6 23:41:47 10° NNW 23:48:02 36° NE 23:49:09 34° ENE
Cosmos 2219 Rocket 4.2 23:44:38 10° WSW 23:49:11 25° NW 23:53:46 10° N
